TimePDT,TemperatureF,Dew PointF,Humidity,Sea Level PressureIn,VisibilityMPH,Wind Direction,Wind SpeedMPH,Gust SpeedMPH,PrecipitationIn,Events,Conditions,WindDirDegrees,DateUTC
12:53 AM,21.0,6.1,53,30.19,10.0,South,9.2,-,N/A,,Clear,170,2014-03-23 07:53:00
1:53 AM,19.0,6.1,57,30.19,10.0,South,9.2,-,N/A,,Clear,170,2014-03-23 08:53:00
2:53 AM,19.9,6.1,55,30.17,10.0,South,8.1,-,N/A,,Clear,180,2014-03-23 09:53:00
3:53 AM,17.1,7.0,65,30.17,10.0,SSE,10.4,-,N/A,,Clear,160,2014-03-23 10:53:00
4:53 AM,18.0,7.0,62,30.17,10.0,South,10.4,-,N/A,,Clear,170,2014-03-23 11:53:00
5:53 AM,16.0,7.0,68,30.19,10.0,South,9.2,-,N/A,,Clear,170,2014-03-23 12:53:00
6:53 AM,18.0,7.0,62,30.22,10.0,South,10.4,-,N/A,,Clear,180,2014-03-23 13:53:00
7:53 AM,27.0,10.0,49,30.25,10.0,South,11.5,-,N/A,,Clear,180,2014-03-23 14:53:00
8:53 AM,37.9,10.9,33,30.21,10.0,South,6.9,-,N/A,,Clear,190,2014-03-23 15:53:00
9:53 AM,46.0,9.0,22,30.19,10.0,ESE,4.6,-,N/A,,Clear,120,2014-03-23 16:53:00
10:53 AM,51.1,3.0,14,30.17,10.0,SSW,10.4,-,N/A,,Clear,210,2014-03-23 17:53:00
11:53 AM,53.1,3.9,14,30.17,10.0,West,11.5,25.3,N/A,,Clear,270,2014-03-23 18:53:00
12:53 PM,57.0,5.0,12,30.14,10.0,North,-9999.0,-,N/A,,Clear,0,2014-03-23 19:53:00
1:53 PM,57.0,1.0,10,30.14,10.0,WNW,11.5,21.9,N/A,,Clear,290,2014-03-23 20:53:00
2:53 PM,57.9,-0.9,9,30.12,10.0,WNW,11.5,-,N/A,,Clear,300,2014-03-23 21:53:00
3:27 PM,57.0,-0.0,10,30.16,10.0,West,15.0,20.7,N/A,,Clear,260,2014-03-23 22:27:00
3:53 PM,57.0,-0.0,10,30.12,10.0,NW,10.4,23.0,N/A,,Clear,320,2014-03-23 22:53:00
4:53 PM,57.0,-0.0,10,30.12,10.0,West,15.0,24.2,N/A,,Clear,280,2014-03-23 23:53:00
5:53 PM,55.0,1.0,11,30.14,10.0,NNW,13.8,-,N/A,,Clear,330,2014-03-24 00:53:00
6:53 PM,48.0,3.0,16,30.17,10.0,North,8.1,-,N/A,,Clear,350,2014-03-24 01:53:00
7:53 PM,37.0,3.0,24,30.20,10.0,WSW,5.8,-,N/A,,Clear,250,2014-03-24 02:53:00
8:53 PM,30.0,3.0,32,30.21,10.0,South,3.5,-,N/A,,Clear,190,2014-03-24 03:53:00
9:53 PM,27.0,5.0,39,30.20,10.0,SSE,6.9,-,N/A,,Clear,160,2014-03-24 04:53:00
10:53 PM,26.1,9.0,49,30.20,10.0,South,10.4,-,N/A,,Clear,170,2014-03-24 05:53:00
11:53 PM,24.1,7.0,48,30.21,10.0,South,11.5,-,N/A,,Clear,170,2014-03-24 06:53:00